SFR501 FAOR-FALE

Flight info

Callsign SFR501
Flight time 0h 49m
Altitude 31000
Route APDAK1B APDAK UQ48 APMAT APMAT1A
Aircraft B738/M-SDE2E3FGHIRWXY/LB1

Departure

Time 2026-05-06 08:17
Airport O.R. Tambo International Airport (FAOR)

Arrival

Time 2026-05-06 09:06
Airport King Shaka International Airport (FALE)
Time Latitude Longitude Altitude Speed Heading
2026-05-06 07:47 -26.13685 28.23107 5549 ft 0 kts
2026-05-06 08:09 -26.13687 28.23106 5547 ft 2 kts
2026-05-06 08:09 -26.13712 28.23104 5549 ft 2 kts
2026-05-06 08:10 -26.13734 28.23098 5549 ft 4 kts 44°
2026-05-06 08:10 -26.13742 28.23075 5547 ft 4 kts 94°
2026-05-06 08:10 -26.13741 28.23061 5550 ft 1 kts 96°
2026-05-06 08:10 -26.13741 28.23060 5550 ft 0 kts 96°
2026-05-06 08:14 -26.13741 28.23062 5550 ft 2 kts 96°
2026-05-06 08:14 -26.13746 28.23113 5546 ft 10 kts 96°
2026-05-06 08:14 -26.13754 28.23207 5546 ft 13 kts 95°
2026-05-06 08:14 -26.13773 28.23302 5549 ft 13 kts 122°
2026-05-06 08:15 -26.13847 28.23346 5546 ft 12 kts 135°
2026-05-06 08:15 -26.13875 28.23434 5555 ft 12 kts 106°
2026-05-06 08:15 -26.13899 28.23520 5560 ft 12 kts 107°
2026-05-06 08:15 -26.13926 28.23603 5562 ft 11 kts 125°
2026-05-06 08:16 -26.13910 28.23661 5563 ft 11 kts
2026-05-06 08:16 -26.13726 28.23715 5559 ft 59 kts 16°
2026-05-06 08:16 -26.13114 28.23907 5546 ft 122 kts 15°
2026-05-06 08:16 -26.12124 28.24218 5575 ft 168 kts 16°
2026-05-06 08:17 -26.10984 28.24629 6120 ft 177 kts 17°
2026-05-06 08:17 -26.09807 28.25152 6759 ft 188 kts 21°
2026-05-06 08:17 -26.08553 28.25644 7367 ft 192 kts
2026-05-06 08:17 -26.07172 28.25957 7574 ft 216 kts
2026-05-06 08:18 -26.05632 28.26354 7760 ft 238 kts
2026-05-06 08:18 -26.04031 28.27097 7925 ft 267 kts 36°
2026-05-06 08:18 -26.02909 28.28851 8169 ft 294 kts 71°
2026-05-06 08:18 -26.02739 28.31151 8775 ft 304 kts 98°
2026-05-06 08:19 -26.03271 28.33451 9102 ft 312 kts 109°
2026-05-06 08:19 -26.04035 28.35714 9094 ft 312 kts 112°
2026-05-06 08:19 -26.04842 28.37950 9070 ft 312 kts 112°
2026-05-06 08:19 -26.05689 28.40193 9130 ft 317 kts 112°
2026-05-06 08:20 -26.06534 28.42490 9687 ft 325 kts 111°
2026-05-06 08:20 -26.07356 28.44866 10372 ft 332 kts 109°
2026-05-06 08:20 -26.08176 28.47363 10599 ft 356 kts 108°
2026-05-06 08:20 -26.09005 28.49981 11010 ft 370 kts 107°
2026-05-06 08:21 -26.09858 28.52722 11570 ft 379 kts 106°
2026-05-06 08:21 -26.10725 28.55523 12197 ft 386 kts 106°
2026-05-06 08:21 -26.11842 28.58285 12760 ft 398 kts 124°
2026-05-06 08:21 -26.13721 28.60579 13389 ft 404 kts 136°
2026-05-06 08:22 -26.15789 28.62760 13929 ft 414 kts 137°
2026-05-06 08:22 -26.17895 28.64947 14472 ft 421 kts 137°
2026-05-06 08:22 -26.20033 28.67176 15139 ft 423 kts 137°
2026-05-06 08:22 -26.22201 28.69460 15602 ft 433 kts 136°
2026-05-06 08:23 -26.24397 28.71794 16160 ft 438 kts 136°
2026-05-06 08:23 -26.26607 28.74156 16763 ft 443 kts 136°
2026-05-06 08:23 -26.28842 28.76552 17316 ft 448 kts 136°
2026-05-06 08:23 -26.31108 28.78983 17851 ft 454 kts 136°
2026-05-06 08:24 -26.33395 28.81437 18367 ft 459 kts 136°
2026-05-06 08:24 -26.35713 28.83924 18847 ft 463 kts 136°
2026-05-06 08:24 -26.38037 28.86419 19389 ft 465 kts 136°
2026-05-06 08:24 -26.40368 28.88924 19957 ft 467 kts 136°
2026-05-06 08:25 -26.42688 28.91419 20435 ft 471 kts 136°
2026-05-06 08:25 -26.45053 28.93965 20931 ft 474 kts 136°
2026-05-06 08:25 -26.47436 28.96531 21400 ft 477 kts 136°
2026-05-06 08:25 -26.49820 28.99101 21975 ft 477 kts 136°
2026-05-06 08:26 -26.52213 29.01682 22495 ft 479 kts 136°
2026-05-06 08:26 -26.54619 29.04278 22948 ft 482 kts 136°
2026-05-06 08:26 -26.57038 29.06907 23400 ft 485 kts 135°
2026-05-06 08:26 -26.59449 29.09564 23821 ft 488 kts 135°
2026-05-06 08:27 -26.61870 29.12250 24216 ft 492 kts 135°
2026-05-06 08:27 -26.64280 29.14929 24471 ft 499 kts 135°
2026-05-06 08:27 -26.66752 29.17675 24822 ft 502 kts 135°
2026-05-06 08:27 -26.69236 29.20433 25226 ft 503 kts 135°
2026-05-06 08:28 -26.71728 29.23198 25637 ft 505 kts 135°
2026-05-06 08:28 -26.74225 29.25969 25987 ft 507 kts 135°
2026-05-06 08:28 -26.76733 29.28753 26407 ft 508 kts 134°
2026-05-06 08:28 -26.79245 29.31543 26764 ft 511 kts 134°
2026-05-06 08:29 -26.81772 29.34353 27080 ft 514 kts 134°
2026-05-06 08:29 -26.84317 29.37185 27408 ft 518 kts 134°
2026-05-06 08:29 -26.86889 29.40048 27712 ft 521 kts 134°
2026-05-06 08:29 -26.89466 29.42919 28040 ft 524 kts 134°
2026-05-06 08:30 -26.92110 29.45746 28392 ft 526 kts 139°
2026-05-06 08:30 -26.95026 29.48246 28697 ft 528 kts 146°
2026-05-06 08:30 -26.98053 29.50594 29018 ft 531 kts 147°
2026-05-06 08:30 -27.01091 29.52886 29337 ft 533 kts 147°
2026-05-06 08:31 -27.04175 29.55208 29631 ft 535 kts 147°
2026-05-06 08:31 -27.07252 29.57552 30050 ft 534 kts 146°
2026-05-06 08:31 -27.10316 29.59915 30443 ft 533 kts 146°
2026-05-06 08:31 -27.13360 29.62288 30822 ft 532 kts 146°
2026-05-06 08:32 -27.16389 29.64664 31186 ft 531 kts 146°
2026-05-06 08:32 -27.19421 29.67049 31539 ft 530 kts 146°
2026-05-06 08:32 -27.22440 29.69425 31872 ft 530 kts 146°
2026-05-06 08:32 -27.25474 29.71813 32186 ft 530 kts 146°
2026-05-06 08:33 -27.28491 29.74187 32611 ft 527 kts 146°
2026-05-06 08:33 -27.31448 29.76514 32979 ft 526 kts 146°
2026-05-06 08:33 -27.37492 29.81273 32977 ft 531 kts 146°
2026-05-06 08:34 -27.46467 29.88352 32973 ft 521 kts 146°
2026-05-06 08:35 -27.52419 29.93055 32957 ft 524 kts 145°
2026-05-06 08:35 -27.58388 29.97778 32956 ft 525 kts 145°
2026-05-06 08:36 -27.64379 30.02526 32955 ft 526 kts 145°
2026-05-06 08:36 -27.70367 30.07279 32939 ft 526 kts 145°
2026-05-06 08:37 -27.76287 30.12001 32777 ft 512 kts 145°
2026-05-06 08:37 -27.79146 30.14287 32496 ft 505 kts 144°
2026-05-06 08:37 -27.81999 30.16569 32163 ft 501 kts 144°
2026-05-06 08:37 -27.84835 30.18839 31790 ft 498 kts 144°
2026-05-06 08:38 -27.87664 30.21103 31432 ft 495 kts 144°
2026-05-06 08:38 -27.90467 30.23348 31063 ft 493 kts 144°
2026-05-06 08:38 -27.93265 30.25590 30725 ft 490 kts 144°
2026-05-06 08:38 -27.96047 30.27822 30342 ft 489 kts 144°
2026-05-06 08:39 -27.98813 30.30041 29989 ft 487 kts 144°
2026-05-06 08:39 -28.01567 30.32252 29570 ft 484 kts 144°
2026-05-06 08:39 -28.04309 30.34456 29167 ft 481 kts 144°
2026-05-06 08:39 -28.07029 30.36643 28787 ft 478 kts 144°
2026-05-06 08:40 -28.09707 30.38798 28411 ft 475 kts 144°
2026-05-06 08:40 -28.12389 30.40957 28011 ft 471 kts 144°
2026-05-06 08:40 -28.15052 30.43102 27710 ft 467 kts 143°
2026-05-06 08:40 -28.17696 30.45233 27329 ft 465 kts 143°
2026-05-06 08:41 -28.20320 30.47350 26970 ft 462 kts 143°
2026-05-06 08:41 -28.22929 30.49456 26610 ft 459 kts 143°
2026-05-06 08:41 -28.25531 30.51558 26255 ft 457 kts 143°
2026-05-06 08:41 -28.28109 30.53642 25902 ft 454 kts 143°
2026-05-06 08:42 -28.30674 30.55716 25554 ft 452 kts 143°
2026-05-06 08:42 -28.33230 30.57783 25210 ft 450 kts 143°
2026-05-06 08:42 -28.35775 30.59842 24883 ft 448 kts 143°
2026-05-06 08:42 -28.38313 30.61895 24493 ft 447 kts 143°
2026-05-06 08:43 -28.40841 30.63941 24153 ft 445 kts 143°
2026-05-06 08:43 -28.43359 30.65980 23796 ft 444 kts 143°
2026-05-06 08:43 -28.45845 30.67996 23423 ft 444 kts 143°
2026-05-06 08:43 -28.48361 30.70038 23041 ft 443 kts 143°
2026-05-06 08:44 -28.50872 30.72077 22673 ft 442 kts 143°
2026-05-06 08:44 -28.53367 30.74104 22292 ft 440 kts 143°
2026-05-06 08:44 -28.55853 30.76124 21963 ft 439 kts 142°
2026-05-06 08:44 -28.58339 30.78145 21590 ft 437 kts 142°
2026-05-06 08:45 -28.60788 30.80138 21243 ft 436 kts 142°
2026-05-06 08:45 -28.63250 30.82143 20889 ft 435 kts 142°
2026-05-06 08:45 -28.65710 30.84148 20544 ft 434 kts 142°
2026-05-06 08:45 -28.68166 30.86150 20195 ft 434 kts 142°
2026-05-06 08:46 -28.70623 30.88156 19824 ft 435 kts 142°
2026-05-06 08:46 -28.73087 30.90168 19460 ft 436 kts 142°
2026-05-06 08:46 -28.75569 30.92193 19109 ft 438 kts 142°
2026-05-06 08:46 -28.78066 30.94208 18717 ft 441 kts 146°
2026-05-06 08:47 -28.80826 30.95634 18302 ft 442 kts 169°
2026-05-06 08:47 -28.83814 30.96388 17911 ft 437 kts 171°
2026-05-06 08:47 -28.86788 30.97109 17542 ft 434 kts 171°
2026-05-06 08:47 -28.89741 30.97837 17173 ft 431 kts 170°
2026-05-06 08:48 -28.92658 30.98574 16852 ft 428 kts 170°
2026-05-06 08:48 -28.95557 30.99322 16492 ft 427 kts 169°
2026-05-06 08:48 -28.98404 31.00066 16240 ft 419 kts 169°
2026-05-06 08:48 -29.01194 31.00799 16054 ft 405 kts 169°
2026-05-06 08:49 -29.03892 31.01508 15864 ft 392 kts 170°
2026-05-06 08:49 -29.06505 31.02193 15693 ft 379 kts 170°
2026-05-06 08:49 -29.09041 31.02859 15538 ft 368 kts 170°
2026-05-06 08:49 -29.11519 31.03509 15271 ft 362 kts 169°
2026-05-06 08:50 -29.13966 31.04149 14956 ft 358 kts 170°
2026-05-06 08:50 -29.16376 31.04782 14662 ft 353 kts 170°
2026-05-06 08:50 -29.18757 31.05408 14357 ft 347 kts 170°
2026-05-06 08:50 -29.21091 31.06022 14075 ft 342 kts 170°
2026-05-06 08:51 -29.23401 31.06629 13761 ft 339 kts 170°
2026-05-06 08:51 -29.25693 31.07232 13428 ft 337 kts 170°
2026-05-06 08:51 -29.27202 31.07629 13229 ft 334 kts 170°
2026-05-06 08:51 -29.30178 31.08414 12832 ft 328 kts 171°
2026-05-06 08:52 -29.32400 31.08999 12574 ft 328 kts 171°
2026-05-06 08:52 -29.34631 31.09586 12304 ft 330 kts 171°
2026-05-06 08:52 -29.36151 31.09985 12066 ft 333 kts 170°
2026-05-06 08:52 -29.38403 31.10580 11781 ft 331 kts 171°
2026-05-06 08:53 -29.41365 31.11325 11431 ft 326 kts 179°
2026-05-06 08:53 -29.42833 31.11316 11210 ft 313 kts 200°
2026-05-06 08:53 -29.44813 31.10532 10900 ft 293 kts 223°
2026-05-06 08:53 -29.46455 31.09226 10620 ft 284 kts 229°
2026-05-06 08:54 -29.48023 31.07854 10342 ft 283 kts 229°
2026-05-06 08:54 -29.49582 31.06473 10084 ft 282 kts 227°
2026-05-06 08:54 -29.51137 31.05098 9813 ft 282 kts 227°
2026-05-06 08:54 -29.52693 31.03727 9526 ft 281 kts 226°
2026-05-06 08:55 -29.54229 31.02378 9198 ft 281 kts 226°
2026-05-06 08:55 -29.55775 31.01024 8925 ft 278 kts 225°
2026-05-06 08:55 -29.57300 30.99692 8637 ft 273 kts 225°
2026-05-06 08:55 -29.58798 30.98385 8361 ft 266 kts 225°
2026-05-06 08:56 -29.60250 30.97119 8122 ft 258 kts 224°
2026-05-06 08:56 -29.61665 30.95884 7872 ft 252 kts 224°
2026-05-06 08:56 -29.63042 30.94680 7644 ft 244 kts 223°
2026-05-06 08:56 -29.64371 30.93517 7429 ft 238 kts 222°
2026-05-06 08:57 -29.65677 30.92375 7252 ft 232 kts 224°
2026-05-06 08:57 -29.66945 30.91262 6988 ft 228 kts 222°
2026-05-06 08:57 -29.68198 30.90166 6747 ft 223 kts 221°
2026-05-06 08:57 -29.69419 30.89097 6529 ft 217 kts 220°
2026-05-06 08:58 -29.70601 30.88063 6316 ft 210 kts 221°
2026-05-06 08:58 -29.71751 30.87056 6083 ft 205 kts 220°
2026-05-06 08:58 -29.72853 30.86092 5808 ft 196 kts 221°
2026-05-06 08:58 -29.73905 30.85171 5593 ft 186 kts 220°
2026-05-06 08:59 -29.75112 30.84619 5453 ft 193 kts 186°
2026-05-06 08:59 -29.76425 30.85056 5296 ft 205 kts 147°
2026-05-06 08:59 -29.77365 30.86287 5155 ft 213 kts 120°
2026-05-06 08:59 -29.77873 30.87914 4986 ft 217 kts 109°
2026-05-06 09:00 -29.78318 30.89605 4739 ft 219 kts 109°
2026-05-06 09:00 -29.78734 30.91226 4678 ft 202 kts 109°
2026-05-06 09:00 -29.79118 30.92758 4558 ft 197 kts 109°
2026-05-06 09:00 -29.79478 30.94277 4416 ft 199 kts 104°
2026-05-06 09:01 -29.79291 30.95833 4310 ft 201 kts 56°
2026-05-06 09:01 -29.78333 30.96976 4080 ft 200 kts 32°
2026-05-06 09:01 -29.77238 30.97925 3805 ft 191 kts 31°
2026-05-06 09:01 -29.76202 30.98812 3570 ft 179 kts 31°
2026-05-06 09:02 -29.75237 30.99647 3343 ft 168 kts 30°
2026-05-06 09:02 -29.74333 31.00436 3110 ft 158 kts 26°
2026-05-06 09:02 -29.73470 31.01188 2968 ft 154 kts 25°
2026-05-06 09:02 -29.72623 31.01927 2729 ft 151 kts 26°
2026-05-06 09:03 -29.71797 31.02649 2522 ft 148 kts 26°
2026-05-06 09:03 -29.70963 31.03375 2344 ft 153 kts 26°
2026-05-06 09:03 -29.70115 31.04116 2131 ft 152 kts 27°
2026-05-06 09:03 -29.69297 31.04834 1933 ft 146 kts 27°
2026-05-06 09:04 -29.68486 31.05542 1756 ft 148 kts 26°
2026-05-06 09:04 -29.67662 31.06263 1545 ft 148 kts 26°
2026-05-06 09:04 -29.66822 31.06989 1355 ft 158 kts 31°
2026-05-06 09:04 -29.65952 31.07757 1158 ft 157 kts 33°
2026-05-06 09:05 -29.65072 31.08534 949 ft 162 kts 32°
2026-05-06 09:05 -29.64176 31.09296 702 ft 159 kts 34°
2026-05-06 09:05 -29.63278 31.10089 500 ft 167 kts 33°
2026-05-06 09:05 -29.62345 31.10910 324 ft 165 kts 32°
2026-05-06 09:06 -29.61517 31.11627 299 ft 125 kts 38°
2026-05-06 09:06 -29.61003 31.12081 299 ft 64 kts 37°
2026-05-06 09:06 -29.60691 31.12350 300 ft 53 kts 37°
2026-05-06 09:06 -29.60410 31.12595 303 ft 48 kts 36°
2026-05-06 09:07 -29.60156 31.12812 304 ft 39 kts 37°
2026-05-06 09:07 -29.59996 31.12953 302 ft 25 kts 37°
2026-05-06 09:07 -29.59867 31.13041 304 ft 14 kts
2026-05-06 09:07 -29.59803 31.12992 307 ft 9 kts 308°
2026-05-06 09:08 -29.59774 31.12934 307 ft 8 kts 280°
2026-05-06 09:08 -29.59802 31.12883 307 ft 8 kts 212°
2026-05-06 09:08 -29.59849 31.12844 308 ft 9 kts 217°
2026-05-06 09:08 -29.59913 31.12787 305 ft 13 kts 218°
2026-05-06 09:09 -29.59986 31.12722 308 ft 13 kts 218°
2026-05-06 09:09 -29.60056 31.12660 308 ft 13 kts 217°
2026-05-06 09:09 -29.60136 31.12591 309 ft 16 kts 217°
2026-05-06 09:09 -29.60229 31.12510 309 ft 17 kts 217°
2026-05-06 09:10 -29.60325 31.12425 309 ft 18 kts 217°
2026-05-06 09:10 -29.60435 31.12329 309 ft 21 kts 217°
2026-05-06 09:10 -29.60553 31.12227 306 ft 21 kts 217°
2026-05-06 09:10 -29.60666 31.12128 302 ft 20 kts 217°
2026-05-06 09:11 -29.60777 31.12032 304 ft 20 kts 216°
2026-05-06 09:11 -29.60884 31.11939 300 ft 19 kts 217°
2026-05-06 09:11 -29.60987 31.11850 301 ft 18 kts 216°
2026-05-06 09:11 -29.61085 31.11764 302 ft 18 kts 218°
2026-05-06 09:12 -29.61181 31.11680 301 ft 17 kts 218°
2026-05-06 09:12 -29.61273 31.11598 302 ft 16 kts 217°
2026-05-06 09:12 -29.61362 31.11520 301 ft 16 kts 216°
2026-05-06 09:12 -29.61449 31.11446 297 ft 15 kts 217°
2026-05-06 09:13 -29.61531 31.11374 298 ft 15 kts 216°
2026-05-06 09:13 -29.61612 31.11305 294 ft 14 kts 217°
2026-05-06 09:13 -29.61690 31.11238 296 ft 14 kts 217°
2026-05-06 09:13 -29.61764 31.11172 295 ft 13 kts 218°
2026-05-06 09:14 -29.61835 31.11110 297 ft 13 kts 217°
2026-05-06 09:14 -29.61905 31.11050 297 ft 12 kts 216°
2026-05-06 09:14 -29.61973 31.10992 298 ft 12 kts 217°
2026-05-06 09:14 -29.62039 31.10933 299 ft 12 kts 218°
2026-05-06 09:15 -29.62092 31.10863 297 ft 12 kts 262°
2026-05-06 09:15 -29.62051 31.10786 295 ft 12 kts 309°
2026-05-06 09:15 -29.62003 31.10715 295 ft 11 kts 307°
2026-05-06 09:15 -29.61997 31.10637 296 ft 11 kts 225°
2026-05-06 09:16 -29.62024 31.10597 296 ft 6 kts 274°
2026-05-06 09:16 -29.62003 31.10558 298 ft 3 kts 308°
2026-05-06 09:16 -29.61995 31.10547 295 ft 0 kts 307°
2026-05-06 09:16 -29.61995 31.10546 295 ft 0 kts 307°